When you browse on this site, cookies collect data to enhance your experience and personalize the content and advertising you see.
Visit our Privacy Policy to learn more. By continuing to use the site, you agree to this use of cookies and data.
  • In United Kingdom
  • List of Countries
  • For 7 days
  • Water Temperature
  • Satellite Maps
  • Weather Map
  • Weather Widgets
  • user-avatar
    Login

    Hourly Weather Escuintla

    Today, 19 November, Monday

    Time Temperature Precipitation Wind Pressure Humidity
    00:00 +25°C° 0 mm 2 mps 730 mmHg 77%
    01:00 +25°C° 0 mm 2 mps 730 mmHg 77%
    02:00 +25°C° 0 mm 2 mps 729 mmHg 76%
    03:00 +25°C° 0 mm 2 mps 729 mmHg 76%
    04:00 +25°C° 0 mm 2 mps 729 mmHg 76%
    05:00 +25°C° 0 mm 2 mps 729 mmHg 76%
    06:00 +25°C° 0 mm 2 mps 729 mmHg 76%
    07:00 +27°C° 0 mm 1 mps 730 mmHg 70%
    08:00 +29°C° 0 mm 1 mps 730 mmHg 65%
    09:00 +31°C° 0 mm 1 mps 731 mmHg 59%
    10:00 +32°C° 0 mm 2 mps 730 mmHg 56%
    11:00 +34°C° 0 mm 2 mps 730 mmHg 54%
    12:00 +35°C° 0 mm 3 mps 730 mmHg 51%
    13:00 +34°C° 0.3 mm 2 mps 729 mmHg 56%
    14:00 +32°C° 0.3 mm 2 mps 729 mmHg 61%
    15:00 +31°C° 0.3 mm 2 mps 728 mmHg 67%
    16:00 +30°C° 0.2 mm 2 mps 728 mmHg 73%
    17:00 +28°C° 0.2 mm 2 mps 728 mmHg 79%
    18:00 +27°C° 0.2 mm 1 mps 728 mmHg 85%
    19:00 +26°C° 0 mm 1 mps 729 mmHg 84%
    20:00 +26°C° 0 mm 1 mps 730 mmHg 84%
    21:00 +25°C° 0 mm 2 mps 730 mmHg 84%
    22:00 +25°C° 0 mm 2 mps 730 mmHg 82%
    23:00 +25°C° 0 mm 2 mps 730 mmHg 80%

    Tomorrow, 20 November, Tuesday

    Time Temperature Precipitation Wind Pressure Humidity
    00:00 +25°C° 0 mm 2 mps 730 mmHg 78%
    01:00 +25°C° 0 mm 2 mps 730 mmHg 78%
    02:00 +25°C° 0 mm 2 mps 730 mmHg 77%
    03:00 +25°C° 0 mm 2 mps 729 mmHg 76%
    04:00 +25°C° 0 mm 2 mps 729 mmHg 76%
    05:00 +25°C° 0 mm 2 mps 729 mmHg 75%
    06:00 +25°C° 0 mm 2 mps 729 mmHg 75%
    07:00 +27°C° 0 mm 2 mps 730 mmHg 69%
    08:00 +29°C° 0 mm 2 mps 730 mmHg 63%
    09:00 +31°C° 0 mm 2 mps 731 mmHg 57%
    10:00 +32°C° 0 mm 2 mps 731 mmHg 53%
    11:00 +34°C° 0 mm 2 mps 730 mmHg 50%
    12:00 +35°C° 0 mm 2 mps 730 mmHg 46%
    13:00 +35°C° 0 mm 2 mps 729 mmHg 50%
    14:00 +34°C° 0 mm 2 mps 729 mmHg 53%
    15:00 +33°C° 0 mm 3 mps 728 mmHg 56%
    16:00 +31°C° 0 mm 2 mps 728 mmHg 64%
    17:00 +29°C° 0 mm 2 mps 729 mmHg 72%
    18:00 +27°C° 0 mm 1 mps 729 mmHg 79%
    19:00 +27°C° 0 mm 1 mps 730 mmHg 79%
    20:00 +26°C° 0 mm 2 mps 730 mmHg 78%
    21:00 +26°C° 0 mm 2 mps 731 mmHg 77%
    22:00 +26°C° 0 mm 2 mps 731 mmHg 77%
    23:00 +26°C° 0 mm 2 mps 731 mmHg 77%

    Day after tomorrow, 21 November, Wednesday

    Time Temperature Precipitation Wind Pressure Humidity
    00:00 +26°C° 0 mm 2 mps 731 mmHg 76%
    01:00 +26°C° 0 mm 2 mps 731 mmHg 77%
    02:00 +25°C° 0 mm 2 mps 730 mmHg 77%
    03:00 +25°C° 0 mm 2 mps 730 mmHg 77%
    04:00 +25°C° 0 mm 2 mps 730 mmHg 77%
    05:00 +25°C° 0 mm 2 mps 730 mmHg 77%
    06:00 +25°C° 0 mm 2 mps 730 mmHg 77%
    07:00 +27°C° 0 mm 2 mps 731 mmHg 71%
    08:00 +28°C° 0 mm 2 mps 732 mmHg 65%
    09:00 +30°C° 0 mm 2 mps 732 mmHg 60%
    10:00 +31°C° 0 mm 2 mps 732 mmHg 56%
    11:00 +34°C° 0 mm 2 mps 731 mmHg 53%
    12:00 +35°C° 0 mm 2 mps 731 mmHg 49%
    13:00 +34°C° 0.1 mm 2 mps 730 mmHg 54%
    14:00 +33°C° 0.1 mm 3 mps 729 mmHg 58%
    15:00 +33°C° 0.1 mm 3 mps 729 mmHg 62%
    16:00 +30°C° 0.1 mm 2 mps 729 mmHg 68%
    17:00 +28°C° 0.1 mm 2 mps 729 mmHg 75%
    18:00 +27°C° 0.1 mm 2 mps 729 mmHg 82%
    19:00 +26°C° 0 mm 2 mps 730 mmHg 81%
    20:00 +26°C° 0 mm 2 mps 731 mmHg 79%
    21:00 +26°C° 0 mm 2 mps 731 mmHg 78%
    22:00 +26°C° 0 mm 2 mps 731 mmHg 78%
    23:00 +26°C° 0 mm 2 mps 731 mmHg 77%

    22 November, Thursday

    Time Temperature Precipitation Wind Pressure Humidity
    00:00 +25°C° 0 mm 2 mps 731 mmHg 76%
    01:00 +25°C° 0 mm 2 mps 731 mmHg 76%
    02:00 +25°C° 0 mm 2 mps 730 mmHg 75%
    03:00 +25°C° 0 mm 2 mps 730 mmHg 75%
    04:00 +25°C° 0 mm 2 mps 730 mmHg 74%
    05:00 +24°C° 0 mm 2 mps 730 mmHg 74%
    06:00 +24°C° 0 mm 2 mps 730 mmHg 73%
    07:00 +26°C° 0 mm 2 mps 730 mmHg 67%
    08:00 +28°C° 0 mm 2 mps 731 mmHg 61%
    09:00 +30°C° 0 mm 2 mps 731 mmHg 55%
    10:00 +32°C° 0 mm 2 mps 731 mmHg 51%
    11:00 +34°C° 0 mm 2 mps 730 mmHg 48%
    12:00 +35°C° 0 mm 2 mps 730 mmHg 45%
    13:00 +35°C° 0 mm 2 mps 729 mmHg 49%
    14:00 +34°C° 0 mm 3 mps 729 mmHg 53%
    15:00 +33°C° 0 mm 3 mps 728 mmHg 56%
    16:00 +30°C° 0.1 mm 2 mps 728 mmHg 65%
    17:00 +29°C° 0.1 mm 2 mps 729 mmHg 73%
    18:00 +27°C° 0.1 mm 2 mps 729 mmHg 82%
    19:00 +26°C° 0.1 mm 2 mps 729 mmHg 81%
    20:00 +26°C° 0.1 mm 2 mps 730 mmHg 80%
    21:00 +26°C° 0.1 mm 2 mps 731 mmHg 79%
    22:00 +26°C° 0 mm 2 mps 730 mmHg 78%
    23:00 +26°C° 0 mm 2 mps 730 mmHg 77%

    23 November, Friday

    Time Temperature Precipitation Wind Pressure Humidity
    00:00 +26°C° 0 mm 1 mps 730 mmHg 77%
    01:00 +25°C° 0 mm 1 mps 729 mmHg 77%
    02:00 +25°C° 0 mm 1 mps 729 mmHg 77%
    03:00 +25°C° 0 mm 1 mps 728 mmHg 77%
    04:00 +25°C° 0 mm 1 mps 728 mmHg 77%
    05:00 +25°C° 0 mm 1 mps 729 mmHg 78%
    06:00 +25°C° 0 mm 2 mps 729 mmHg 78%
    07:00 +27°C° 0 mm 1 mps 729 mmHg 72%
    08:00 +28°C° 0 mm 1 mps 730 mmHg 65%
    09:00 +30°C° 0 mm 1 mps 730 mmHg 59%
    10:00 +31°C° 0 mm 1 mps 730 mmHg 56%
    11:00 +32°C° 0 mm 2 mps 729 mmHg 52%
    12:00 +34°C° 0 mm 2 mps 729 mmHg 49%
    13:00 +34°C° 0 mm 2 mps 728 mmHg 52%
    14:00 +32°C° 0 mm 2 mps 728 mmHg 56%
    15:00 +32°C° 0 mm 2 mps 727 mmHg 59%
    16:00 +30°C° 0.1 mm 2 mps 727 mmHg 67%
    17:00 +28°C° 0.1 mm 1 mps 728 mmHg 76%
    18:00 +26°C° 0.1 mm 1 mps 728 mmHg 84%
    19:00 +26°C° 0.2 mm 1 mps 728 mmHg 82%
    20:00 +25°C° 0.2 mm 1 mps 729 mmHg 81%
    21:00 +25°C° 0.2 mm 1 mps 729 mmHg 80%
    22:00 +25°C° 0 mm 1 mps 729 mmHg 78%
    23:00 +24°C° 0 mm 1 mps 729 mmHg 77%

    24 November, Saturday

    Time Temperature Precipitation Wind Pressure Humidity
    00:00 +24°C° 0 mm 1 mps 729 mmHg 76%
    01:00 +24°C° 0 mm 1 mps 728 mmHg 76%
    02:00 +24°C° 0 mm 2 mps 728 mmHg 75%
    03:00 +24°C° 0 mm 2 mps 728 mmHg 74%
    04:00 +24°C° 0 mm 2 mps 728 mmHg 73%
    05:00 +23°C° 0 mm 2 mps 728 mmHg 72%
    06:00 +23°C° 0 mm 1 mps 729 mmHg 71%
    07:00 +26°C° 0 mm 1 mps 729 mmHg 64%
    08:00 +28°C° 0 mm 1 mps 729 mmHg 57%
    09:00 +29°C° 0 mm 0 mps 730 mmHg 50%
    10:00 +32°C° 0 mm 1 mps 729 mmHg 48%
    11:00 +33°C° 0 mm 1 mps 728 mmHg 46%
    12:00 +35°C° 0 mm 2 mps 728 mmHg 43%
    13:00 +35°C° 0 mm 2 mps 727 mmHg 46%
    14:00 +34°C° 0 mm 2 mps 727 mmHg 49%
    15:00 +34°C° 0 mm 2 mps 726 mmHg 52%
    16:00 +30°C° 0 mm 1 mps 726 mmHg 63%
    17:00 +28°C° 0 mm 1 mps 727 mmHg 74%
    18:00 +24°C° 0 mm 0 mps 727 mmHg 85%
    19:00 +24°C° 0.1 mm 0 mps 728 mmHg 85%
    20:00 +25°C° 0.1 mm 1 mps 728 mmHg 85%
    21:00 +25°C° 0.1 mm 1 mps 729 mmHg 85%
    22:00 +25°C° 0.3 mm 1 mps 729 mmHg 84%
    23:00 +24°C° 0.3 mm 1 mps 728 mmHg 83%
    Show more